Mount Holly, NJ

4:29 PM EST on December 08, 2019 (GMT -0500)
South Jersey Regional

Weather History for KVAY - September, 2019

Change the Weather History Date:

Friday, September 13, 2019

  Actual Average (KPNE) Record (KPNE)
Temperature  
Mean Temperature 66 °F -  
Max Temperature 72 °F 76 °F 93 °F (2005)
Min Temperature 60 °F 58 °F 52 °F (2002)
Cooling Degree Days 1    
Growing Degree Days 16 (Base 50)    
Moisture  
Dew Point 55 °F    
Average Humidity 72    
Maximum Humidity 87    
Minimum Humidity 51    
Precipitation  
Precipitation 0.00 in - - ()
Sea Level Pressure  
Sea Level Pressure 30.37 in    
Wind  
Wind Speed 6 mph (ENE)    
Max Wind Speed 13 mph    
Max Gust Speed 22 mph    
Visibility 10 miles    
Events      
Averages and records for this station are not official NWS values.
T = Trace of Precipitation, MM = Missing Value Source: NWS Daily Summary

Daily Weather History Graph

Daily Weather History Graph

Search for Another Location

Airport or City:

Astronomy

Sep. 13, 2019 Rise Set
Actual Time 6:38 AM EDT 7:11 PM EDT
Civil Twilight 6:11 AM EDT 7:38 PM EDT
Nautical Twilight 5:38 AM EDT 8:10 PM EDT
Astronomical Twilight 5:05 AM EDT 8:43 PM EDT
Moon 7:24 PM EDT (9/13) 5:52 AM EDT (9/13)
Length of Visible Light 13h 27m
Length of Day
12h 33m
Full, 100% of the Moon is Illuminated
Sep 13
Full
Sep 14
Full
Sep 21
Last Quarter
Sep 28
New
Oct 5
First Quarter

Hourly Weather History & Observations

Time (EDT) Temp. Dew Point Humidity Pressure Visibility Wind Dir Wind Speed Gust Speed Precip Events Conditions
12:18 AM 64.9 °F 61.0 °F 87% 30.26 in 10.0 mi East 5.8 mph - N/A   Overcast
12:34 AM 64.9 °F 61.0 °F 87% 30.26 in 10.0 mi Variable 4.6 mph - N/A   Overcast
12:54 AM 64.9 °F 61.0 °F 87% 30.27 in 10.0 mi ENE 5.8 mph - N/A   Overcast
1:54 AM 64.0 °F 59.0 °F 84% 30.28 in 10.0 mi ENE 4.6 mph - N/A   Overcast
2:54 AM 64.0 °F 59.0 °F 84% 30.28 in 10.0 mi ENE 3.5 mph - N/A   Overcast
3:10 AM 64.0 °F 57.9 °F 80% 30.29 in 10.0 mi NE 4.6 mph - N/A   Overcast
3:46 AM 63.0 °F 57.0 °F 81% 30.30 in 10.0 mi NE 4.6 mph - N/A   Overcast
3:54 AM 63.0 °F 57.0 °F 81% 30.30 in 10.0 mi Variable 3.5 mph - N/A   Overcast
4:54 AM 63.0 °F 55.9 °F 78% 30.32 in 10.0 mi NE 4.6 mph - N/A   Overcast
5:54 AM 62.1 °F 55.0 °F 78% 30.34 in 10.0 mi NE 4.6 mph - N/A   Overcast
6:54 AM 62.1 °F 54.0 °F 75% 30.35 in 10.0 mi NE 4.6 mph - N/A   Overcast
7:54 AM 62.1 °F 55.0 °F 78% 30.37 in 10.0 mi NE 6.9 mph - N/A   Overcast
8:54 AM 63.0 °F 55.9 °F 78% 30.40 in 10.0 mi NE 5.8 mph - N/A   Overcast
9:52 AM 64.4 °F 55.4 °F 73% 30.41 in 10.0 mi East 9.2 mph 17.3 mph N/A   Overcast
9:54 AM 64.9 °F 55.0 °F 70% 30.41 in 10.0 mi East 9.2 mph 17.3 mph N/A   Overcast
10:27 AM 66.0 °F 55.0 °F 68% 30.42 in 10.0 mi East 8.1 mph - N/A   Overcast
10:54 AM 66.9 °F 55.0 °F 66% 30.43 in 10.0 mi East 12.7 mph 21.9 mph N/A   Overcast
11:54 AM 68.0 °F 55.0 °F 63% 30.43 in 10.0 mi East 9.2 mph - N/A   Overcast
12:54 PM 69.1 °F 54.0 °F 58% 30.44 in 10.0 mi East 9.2 mph - N/A   Overcast
1:54 PM 70.0 °F 52.0 °F 53% 30.43 in 10.0 mi East 12.7 mph 19.6 mph N/A   Overcast
2:54 PM 70.0 °F 52.0 °F 53% 30.43 in 10.0 mi ESE 11.5 mph 19.6 mph N/A   Overcast
3:54 PM 70.0 °F 51.1 °F 51% 30.42 in 10.0 mi ESE 8.1 mph 18.4 mph N/A   Overcast
4:54 PM 69.1 °F 53.1 °F 57% 30.43 in 10.0 mi ESE 8.1 mph - N/A   Overcast
5:54 PM 66.9 °F 54.0 °F 63% 30.43 in 10.0 mi East 11.5 mph 17.3 mph N/A   Overcast
6:54 PM 66.0 °F 52.0 °F 60% 30.42 in 10.0 mi East 5.8 mph - N/A   Overcast
7:54 PM 64.0 °F 53.1 °F 67% 30.42 in 10.0 mi Calm Calm - N/A   Overcast
8:54 PM 63.0 °F 55.0 °F 75% 30.42 in 10.0 mi East 3.5 mph - N/A   Overcast
9:54 PM 63.0 °F 53.1 °F 70% 30.42 in 10.0 mi Variable 3.5 mph - N/A   Overcast
10:54 PM 62.1 °F 53.1 °F 72% 30.40 in 10.0 mi East 3.5 mph - N/A   Overcast
11:54 PM 60.1 °F 54.0 °F 80% 30.39 in 10.0 mi Calm Calm - N/A   Scattered Clouds